Location: Unspecified
(42.9300°N, 71.1866°W)
Time: 12:59:10
(UTC-04:00)

Cosmos 2058 - Visible Passes

Search period start: 22 September 2017 00:00
Search period end: 02 October 2017 00:00
Orbit: 564 x 585 km, 82.5° (Epoch: 22 September)

Date Brightness Start Highest point End Pass type
(mag) Time Alt. Az. Time Alt. Az. Time Alt. Az.
24 Sep 5.9 21:36:31 10° N 21:36:32 10° N 21:36:32 10° N visible
25 Sep 5.8 21:39:44 10° N 21:39:54 11° N 21:39:54 11° N visible
26 Sep 5.8 21:43:00 10° N 21:43:16 12° N 21:43:16 12° N visible
27 Sep 5.9 21:46:19 10° N 21:46:40 12° NNW 21:46:40 12° NNW visible
28 Sep 5.9 21:49:41 10° NNW 21:50:04 12° NNW 21:50:04 12° NNW visible
29 Sep 5.4 20:17:13 10° NNE 20:17:16 10° NNE 20:17:16 10° NNE visible
29 Sep 6.0 21:53:06 10° NNW 21:53:30 12° NNW 21:53:30 12° NNW visible
30 Sep 5.2 20:20:06 10° NNE 20:20:43 13° NNE 20:20:43 13° NNE visible
30 Sep 6.0 21:56:36 10° NNW 21:56:57 12° NNW 21:56:57 12° NNW visible
01 Oct 5.0 20:23:07 10° NNE 20:24:11 16° NNE 20:24:11 16° NNE visible
01 Oct 6.1 22:00:09 10° NW 22:00:25 11° NW 22:00:25 11° NW visible
